Location: Chiroubles
(46.1812°N, 4.6660°E)
Time: 15:11:54
(UTC+00:00)

Transit 4A - Pass Details

Date: 04 December 2020
Orbit: 864 x 980 km, 66.8° (Epoch: 26 January)

Event Time Altitude Azimuth Distance (km) Brightness Sun altitude
Rises 10:27:55 0° 303° (WNW) 3,686 10.6 20.0°
Reaches altitude 10° 10:32:52 10° 336° (NNW) 2,741 9.8 20.2°
Maximum altitude 10:34:49 11° 354° (N) 2,639 9.8 20.3°
Drops below altitude 10° 10:36:46 10° 12° (NNE) 2,736 9.9 20.4°
Sets 10:41:42 0° 45° (NE) 3,669 10.7 20.6°
